EW5961 Weather Reports


time (UTC)temp
C
wind
direction
speed
KPH
gust
KPH
rain 1hr
cm
rain 24hr
cm
rain mn
cm
humidity
%
barometer
mb
20260502163044 35 161 8.0 16.1 0.00 0.00 0.00 57 1009.4
20260502161527 34 227 1.6 20.9 0.00 0.00 0.00 60 1009.4
20260502151525 32 142 17.7 29.0 0.00 0.00 0.00 68 1009.5
20260502123038 26 121 16.1 22.5 0.00 0.00 0.00 84 1008.8
20260502121526 26 96 11.3 22.5 0.00 0.00 0.00 84 1008.7
20260502114519 26 135 11.3 20.9 0.00 0.00 0.00 84 1008.5
20260502113016 26 149 12.9 25.7 0.00 0.00 0.00 84 1008.3
20260502111514 26 139 16.1 24.1 0.00 0.00 0.00 83 1008.1
20260502110019 26 117 14.5 27.4 0.00 0.00 0.00 84 1007.9
20260502104513 26 144 16.1 29.0 0.00 0.00 0.00 83 1007.8
20260502103013 26 145 14.5 25.7 0.00 0.00 0.00 83 1007.6
20260502101511 26 157 16.1 25.7 0.00 0.00 0.00 83 1007.5
20260502091506 26 142 17.7 33.8 0.00 0.00 0.00 82 1007.3
20260502070052 27 142 20.9 32.2 0.00 0.00 0.00 76 1008.0
20260502064646 27 142 17.7 27.4 0.00 0.00 0.00 75 1007.9
20260502063043 28 130 12.9 24.1 0.00 0.00 0.00 75 1007.8
20260502061541 28 139 14.5 27.4 0.00 0.00 0.00 74 1008.0
20260502060037 28 140 12.9 25.7 0.00 0.00 0.00 74 1008.1
20260502054536 28 137 19.3 29.0 0.00 0.00 0.00 73 1008.0
20260502053037 28 147 16.1 37.0 0.00 0.00 0.00 72 1008.0
20260502051535 29 136 27.4 37.0 0.00 0.00 0.00 72 1007.9
20260502050034 29 135 25.7 37.0 0.00 0.00 0.00 71 1007.8
20260502044533 30 126 22.5 37.0 0.00 0.00 0.00 70 1007.9
20260502043033 30 134 24.1 38.6 0.00 0.00 0.00 69 1007.7
20260502041533 30 140 22.5 33.8 0.00 0.00 0.00 68 1007.7
20260502040037 31 151 17.7 30.6 0.00 0.00 0.00 67 1007.6
20260502034530 31 142 25.7 37.0 0.00 0.00 0.00 66 1007.3
20260502033032 31 163 22.5 35.4 0.00 0.00 0.00 65 1007.2
20260502031531 32 136 16.1 29.0 0.00 0.00 0.00 64 1006.9
20260502030028 32 152 16.1 35.4 0.00 0.00 0.00 63 1006.5
20260502024528 32 66 27.4 38.6 0.00 0.00 0.00 62 1006.4
20260502023027 33 145 19.3 30.6 0.00 0.00 0.00 60 1006.0
20260502021526 33 156 16.1 32.2 0.00 0.00 0.00 56 1005.5
20260502020026 34 135 20.9 35.4 0.00 0.00 0.00 54 1005.2
20260502014531 35 166 11.3 25.7 0.00 0.00 0.00 50 1004.9
20260502013124 35 153 11.3 24.1 0.00 0.00 0.00 48 1004.7
20260502011529 35 145 12.9 20.9 0.00 0.00 0.00 46 1004.3
20260502010023 35 152 12.9 24.1 0.00 0.00 0.00 45 1004.1
20260502004523 36 144 14.5 24.1 0.00 0.00 0.00 44 1003.9
20260502003022 36 132 16.1 25.7 0.00 0.00 0.00 43 1003.7
20260502001522 36 140 17.7 27.4 0.00 0.00 0.00 43 1003.7
20260502000021 37 167 16.1 24.1 0.00 0.00 0.00 42 1003.4
20260501234520 37 144 16.1 20.9 0.00 0.00 0.00 41 1003.5
20260501233020 37 119 17.7 24.1 0.00 0.00 0.00 41 1003.5
20260501231520 37 142 11.3 22.5 0.00 0.00 0.00 41 1003.3
20260501230023 37 172 12.9 25.7 0.00 0.00 0.00 41 1003.2
20260501224519 38 169 8.0 25.7 0.00 0.00 0.00 39 1003.2
20260501223017 37 133 9.7 27.4 0.00 0.00 0.00 40 1003.2
20260501221518 38 190 16.1 30.6 0.00 0.00 0.00 39 1003.3
20260501220016 38 188 14.5 32.2 0.00 0.00 0.00 40 1003.3
20260501214515 38 112 17.7 33.8 0.00 0.00 0.00 39 1003.2
20260501213014 38 165 16.1 33.8 0.00 0.00 0.00 39 1003.4
20260501211513 38 132 11.3 27.4 0.00 0.00 0.00 39 1003.5
20260501210012 38 101 19.3 30.6 0.00 0.00 0.00 40 1003.5
20260501204509 38 138 19.3 30.6 0.00 0.00 0.00 39 1003.8
20260501203007 38 136 22.5 30.6 0.00 0.00 0.00 41 1004.1
20260501201505 38 184 9.7 25.7 0.00 0.00 0.00 41 1004.3
20260501200103 38 161 9.7 27.4 0.00 0.00 0.00 41 1004.6
20260501194603 38 167 9.7 33.8 0.00 0.00 0.00 42 1005.0
20260501193056 37 138 19.3 32.2 0.00 0.00 0.00 43 1005.5
20260501191654 37 155 20.9 29.0 0.00 0.00 0.00 45 1005.8
20260501190048 37 188 9.7 33.8 0.00 0.00 0.00 45 1006.2
20260501184544 36 142 22.5 37.0 0.00 0.00 0.00 47 1006.4
20260501183042 36 143 20.9 33.8 0.00 0.00 0.00 47 1006.7
20260501181541 36 122 19.3 29.0 0.00 0.00 0.00 49 1007.0
20260501180035 36 120 12.9 33.8 0.00 0.00 0.00 50 1007.1
20260501174538 35 190 14.5 37.0 0.00 0.00 0.00 51 1007.5
20260501173024 35 131 19.3 41.8 0.00 0.00 0.00 53 1007.4
20260501171524 34 130 24.1 40.2 0.00 0.00 0.00 55 1007.8
20260501170018 34 121 16.1 37.0 0.00 0.00 0.00 56 1008.0
20260501164514 33 184 25.7 41.8 0.00 0.00 0.00 57 1008.2